Lid_Strength_Index
6 6 5 5 5 5 5 5 5 5 4 4 4 4 3 3 3 5 8 5 4 2 2 6 6 7 7 9 9 9 14 16 15 14 13 11 11 9 8 10 8 6 6 5 3
6 6 6 6 6 5 5 5 5 5 5 4 4 4 3 3 5 8 5 3 3 2 6 8 9 8 10 10 10 12 15 14 12 12 12 10 10 10 10 9 10 9 4 3 3
6 6 6 6 6 6 5 5 5 5 5 5 4 4 3 4 8 9 4 3 3 3 6 7 7 8 10 10 11 11 15 12 11 9 9 10 10 9 10 11 10 9 8 7 5
6 6 6 6 6 6 6 6 5 5 5 5 4 4 3 6 13 7 4 3 3 4 6 8 8 10 11 12 10 13 11 10 9 8 9 10 9 10 9 9 7 7 6 6 8
6 6 6 6 6 6 6 6 5 5 5 5 4 4 6 10 10 5 3 4 6 6 8 8 10 10 12 11 11 12 11 9 9 9 9 8 9 10 9 8 7 6 6 6 7
6 6 6 6 6 6 6 6 6 5 5 5 4 4 7 12 6 6 6 6 7 7 8 8 9 8 10 11 11 11 10 10 9 9 9 9 9 9 9 7 7 6 7 7 7
6 6 6 6 6 6 6 6 6 6 5 5 4 5 8 10 7 7 6 7 6 7 8 7 7 9 10 11 9 10 13 11 10 9 9 9 11 10 8 6 7 7 6 6 5
6 6 6 7 7 6 7 6 6 6 6 5 5 7 11 7 8 7 6 7 6 6 7 6 6 8 10 9 10 12 13 15 11 9 8 10 14 9 7 8 9 8 8 7 5
6 6 6 6 7 7 7 6 6 6 5 5 7 9 12 6 8 7 7 8 7 6 6 6 7 10 10 13 15 14 18 15 13 9 9 10 13 9 7 8 10 10 8 6 5
6 6 6 7 7 7 7 7 7 7 6 6 7 12 10 11 9 8 7 7 8 8 8 9 10 13 14 15 22 18 15 14 15 10 10 11 11 9 9 9 10 9 7 7 6
5 6 6 7 7 7 9 10 12 13 11 13 12 12 11 9 8 8 7 8 8 10 14 11 15 19 15 14 13 14 13 14 13 10 11 11 11 10 9 10 10 10 9 8 6
5 6 7 7 8 7 9 13 12 12 15 11 11 11 9 9 11 9 7 11 11 14 13 14 16 13 12 12 13 13 16 17 13 10 10 11 12 11 11 11 11 11 10 9 6
5 6 7 8 8 10 12 12 9 10 14 13 11 11 11 10 11 11 9 10 13 14 14 16 14 12 13 13 13 15 17 16 15 11 10 12 14 13 11 10 10 10 10 10 7
5 6 7 8 10 12 14 10 9 10 19 16 13 12 10 10 12 9 8 10 12 14 14 15 13 13 14 14 14 17 11 13 14 14 17 13 19 15 13 12 11 11 10 9 7
5 6 8 9 12 13 12 10 10 12 24 15 14 10 10 12 11 11 9 10 13 13 15 16 15 15 15 14 13 15 12 13 13 14 15 16 18 15 13 14 13 11 10 8 7
6 7 8 10 11 11 10 10 11 20 24 17 14 14 14 12 12 11 11 10 11 13 13 14 12 13 14 12 12 12 13 13 13 14 19 18 19 20 15 14 13 11 10 9 8
6 7 9 10 12 10 10 13 21 24 18 19 17 14 14 15 14 13 14 14 16 20 18 15 15 13 12 14 12 13 15 22 22 22 21 16 17 18 13 12 12 12 11 10 9
6 7 9 9 11 11 13 19 25 22 20 15 15 15 16 15 15 14 15 17 14 15 17 19 20 15 13 14 15 15 15 21 24 22 21 16 19 17 12 11 11 11 11 11 11
7 10 11 10 10 12 17 25 22 20 17 16 16 19 19 15 16 16 16 16 15 14 18 18 18 13 13 13 13 15 17 14 17 20 20 19 16 12 11 12 13 13 12 13 12
10 11 12 10 11 14 21 22 20 17 15 15 19 17 20 19 18 17 18 15 15 13 13 15 19 15 13 13 12 14 13 18 19 25 24 20 19 17 14 14 14 14 14 13 13
11 15 12 10 12 18 24 23 19 17 15 16 18 18 17 17 18 18 17 15 14 14 13 14 16 17 14 16 16 15 15 15 16 18 20 21 19 14 13 13 14 14 13 14 13
12 17 11 11 20 21 23 22 17 18 15 15 15 16 17 16 17 18 17 15 13 13 16 14 16 21 18 14 13 14 15 14 19 19 18 18 19 12 13 13 13 14 13 13 13
16 16 11 12 23 22 21 23 19 17 16 16 17 15 15 16 19 16 15 13 12 13 14 14 22 26 20 17 14 15 14 14 14 16 18 20 19 13 13 14 13 13 13 13 13
15 19 16 15 18 20 23 23 23 16 16 15 16 15 16 17 16 17 16 14 14 13 11 12 17 20 21 19 17 17 16 15 15 20 18 18 18 15 15 15 14 13 13 13 12
15 17 17 20 18 18 19 19 21 21 18 16 17 16 17 19 18 18 16 16 14 12 14 14 22 18 17 16 16 17 17 16 17 16 18 17 17 15 14 15 14 13 12 12 12
16 17 15 18 17 18 18 20 19 19 19 19 19 16 16 18 17 18 16 17 17 15 15 15 24 20 24 18 18 18 17 17 17 16 16 16 16 12 13 14 15 13 13 13 12
12 13 14 16 18 19 19 18 18 17 17 16 16 17 17 16 15 15 14 15 15 16 16 18 22 26 27 21 23 24 21 17 17 16 15 17 14 13 14 14 14 13 13 13 12